Overview Statistics Trail Chart Weather Telemetry Raw packets
 

This is the latest recevied weather packets stored in our database for station/object KA1BMF-13. If no packets are shown the sender has not sent any weather packets the latest 10 day(s).

<< 39 40 41 42 43 44 45 >>
Time Temp. Humidity Pressure Rain* Wind** Luminosity Snow
1787915723 21.67° C 99% 1015.3 hPa 0 mm - 47 W/m² -
1787915123 21.67° C 99% 1015.2 hPa 0 mm - 40 W/m² -
1787914533 21.67° C 99% 1015.2 hPa 0 mm - 24 W/m² -
1787913924 21.67° C 99% 1015.2 hPa 0 mm - 12 W/m² -
1787913324 21.67° C 99% 1014.9 hPa 0 mm - 9 W/m² -
1787912726 21.67° C 99% 1014.8 hPa 0 mm - 3 W/m² -
1787912124 21.67° C 99% 1014.6 hPa 0 mm - 1 W/m² -
1787911524 21.67° C 99% 1014.4 hPa 0 mm - 0 W/m² -
1787910925 21.67° C 99% 1014.4 hPa 0 mm - 0 W/m² -
1787910325 21.67° C 99% 1014.3 hPa 0 mm - 0 W/m² -
1787909719 21.67° C 99% 1014.3 hPa 0 mm - 0 W/m² -
1787909120 21.67° C 98% 1014.4 hPa 0 mm - 0 W/m² -
1787908520 21.11° C 98% 1014.4 hPa 0 mm - 0 W/m² -
1787907917 21.11° C 98% 1014.4 hPa 0 mm - 0 W/m² -
1787907317 21.11° C 98% 1014.2 hPa 0 mm - 0 W/m² -
1787906717 21.11° C 98% 1014.2 hPa 0 mm - 0 W/m² -
1787906120 21.11° C 98% 1014.1 hPa 0 mm - 0 W/m² -
1787905518 21.11° C 98% 1014.3 hPa 0 mm - 0 W/m² -
1787904918 21.11° C 98% 1014.1 hPa 0 mm - 0 W/m² -
1787904318 21.11° C 98% 1014 hPa 0 mm - 0 W/m² -
1787903718 21.11° C 98% 1014.1 hPa 0 mm - 0 W/m² -
1787903119 21.11° C 98% 1014.2 hPa 0 mm - 0 W/m² -
1787902519 21.11° C 98% 1014.3 hPa 0 mm - 0 W/m² -
1787901919 21.11° C 98% 1014.4 hPa 0 mm - 0 W/m² -
1787901319 21.11° C 98% 1014.5 hPa 0 mm - 0 W/m² -

* Rain latest hour (hover to see other rain measurements)
** Current wind speed in m/s (hover to see current wind gust speed)